(493180) = 2010 BR27 = 2014 UJ12

Discovered at WISE on 2010-01-18 by WISE.

Orbit

Orbit type: Main Belt

Note: WebGL enabled browser required.

epoch2023-09-13.0
epoch JD2460200.5
perihelion date2020-02-17.31659
perihelion JD2458896.81659
argument of perihelion (°)183.43593
ascending node (°)236.96137
inclination (°)11.04470
eccentricity0.0435739
perihelion distance (AU)2.7904426
Tisserand w.r.t. Jupiter3.3
ΔV w.r.t. Earth (km/sec)11.0
semimajor axis (AU)2.9175725
mean anomaly (°)257.83597
mean daily motion (°/day)0.19777500
aphelion distance (AU)3.045
period (years)4.98
P-vector [x]0.49491352
P-vector [y]0.80173640
P-vector [z]0.33508111
Q-vector [x]-0.85397246
Q-vector [y]0.52003928
Q-vector [z]0.01703497
absolute magnitude16.85
phase slope0.15
uncertainty0
referenceMPEC 2023-P22
observations used178
oppositions11
arc length (days)8201
first opposition used2001
last opposition used2023
residual rms (arc-secs)0.76
perturbers coarse indicatorM-v
perturbers precise indicator003Ek
first observation date used2001-02-20.0
last observation date used2023-08-05.0
computer nameMPCLINUX
Minimum Orbit Intersection Distances (in AU)
for orbit epoch: 2460200.5, reference: E2023-P22
Mercury2.47787
Venus2.06867
Earth1.80168
Mars1.2625
Jupiter2.19111
Saturn6.26169
Uranus15.5463
Neptune27.0527

Observations

181 total observations over interval: 2001 02 20.302150 – 2023 08 05.304670
These data are available for download (format description).

Date (UT) J2000 RA J2000 Dec Magn Location Ref
2001 02 20.302150 08 21 17.586 +03 12 48.79 21.28 V 645 – Apache Point-Sloan Digital Sky Survey MPS 797952
2001 02 20.305622 08 21 17.442 +03 12 49.83 21.84   645 – Apache Point-Sloan Digital Sky Survey MPS 797952
2009 11 21.13619 01 51 18.46 +16 22 58.4 20.8 V G96 – Mt. Lemmon Survey MPS 797952
2009 11 21.14152 01 51 18.32 +16 22 56.6 21.0 V G96 – Mt. Lemmon Survey MPS 797952
2009 11 21.14686 01 51 18.14 +16 22 53.7 21.2 V G96 – Mt. Lemmon Survey MPS 797952
2009 11 21.15208 01 51 17.96 +16 22 51.4 21.0 V G96 – Mt. Lemmon Survey MPS 797952
2010 01 18.03925 02 00 26.48 +13 11 55.2   C51 – WISE MPS 332085
2010 01 18.039252 02 00 26.34 +13 11 55.3   C51 – WISE MPS 332085
2010 01 18.17156 02 00 32.50 +13 12 02.6   C51 – WISE MPS 332085
2010 01 18.502383 02 00 47.88 +13 12 24.5   C51 – WISE MPS 332085
2010 01 18.568598 02 00 51.149 +13 12 27.00   C51 – WISE MPS 904558
2010 01 18.634687 02 00 54.15 +13 12 31.1   C51 – WISE MPS 332085
2010 01 18.700904 02 00 57.202 +13 12 35.68   C51 – WISE MPS 904558
2010 01 18.766992 02 01 00.348 +13 12 39.31   C51 – WISE MPS 904558
2010 01 18.899425 02 01 06.69 +13 12 48.8   C51 – WISE MPS 332085
2010 01 19.031729 02 01 12.78 +13 12 57.3   C51 – WISE MPS 332085
2012 04 15.43034 14 32 58.653 -20 58 17.17 21.4 w F51 – Pan-STARRS 1, Haleakala MPS 797952
2012 04 15.44422 14 32 58.020 -20 58 12.43 21.1 w F51 – Pan-STARRS 1, Haleakala MPS 797952
2012 04 15.45808 14 32 57.375 -20 58 07.71 21.1 w F51 – Pan-STARRS 1, Haleakala MPS 797952
2012 04 15.47201 14 32 56.755 -20 58 03.09 21.1 w F51 – Pan-STARRS 1, Haleakala MPS 797952
2012 04 28.31759 14 23 02.50 -19 36 26.0 21.3 V G96 – Mt. Lemmon Survey MPS 797952
2012 04 28.32454 14 23 02.25 -19 36 23.2 21.1 V G96 – Mt. Lemmon Survey MPS 797952
2012 04 28.33149 14 23 01.86 -19 36 20.5 21.2 V G96 – Mt. Lemmon Survey MPS 797952
2012 04 28.33844 14 23 01.53 -19 36 17.2 21.3 V G96 – Mt. Lemmon Survey MPS 797952
2014 10 03.31320 02 29 48.85 +22 17 06.2 21.1 V G96 – Mt. Lemmon Survey MPS 542516
2014 10 03.32492 02 29 48.48 +22 17 03.0 21.0 V G96 – Mt. Lemmon Survey MPS 542516
2014 10 03.33666 02 29 48.07 +22 17 00.4 20.8 V G96 – Mt. Lemmon Survey MPS 542516
2014 10 03.34841 02 29 47.67 +22 16 57.6 20.9 V G96 – Mt. Lemmon Survey MPS 542516
2014 10 17.20198 02 20 52.99 +21 03 21.4 21.1 V 691 – Steward Observatory, Kitt Peak-Spacewatch MPS 540786
2014 10 17.22242 02 20 52.08 +21 03 13.6 20.6 V 691 – Steward Observatory, Kitt Peak-Spacewatch MPS 540786
2014 10 17.24286 02 20 51.09 +21 03 06.2 21.2 V 691 – Steward Observatory, Kitt Peak-Spacewatch MPS 540786
2014 10 21.17213 02 17 51.23 +20 36 52.4 20.8 V 691 – Steward Observatory, Kitt Peak-Spacewatch MPS 540786
2014 10 21.18500 02 17 50.56 +20 36 47.1 20.5 V 691 – Steward Observatory, Kitt Peak-Spacewatch MPS 540786
2014 10 21.19788 02 17 49.98 +20 36 41.8 20.8 V 691 – Steward Observatory, Kitt Peak-Spacewatch MPS 540786
2014 10 25.17738 02 14 41.07 +20 08 09.4 20.7 V 691 – Steward Observatory, Kitt Peak-Spacewatch MPS 542516
2014 10 25.19774 02 14 40.12 +20 08 00.2 20.9 V 691 – Steward Observatory, Kitt Peak-Spacewatch MPS 542516
2014 10 25.21809 02 14 39.06 +20 07 51.3 20.2 V 691 – Steward Observatory, Kitt Peak-Spacewatch MPS 542516
2014 10 29.17509 02 11 28.53 +19 37 52.2   691 – Steward Observatory, Kitt Peak-Spacewatch MPS 542516
2014 10 29.19552 02 11 27.54 +19 37 42.0   691 – Steward Observatory, Kitt Peak-Spacewatch MPS 542516
2014 10 29.21596 02 11 26.51 +19 37 33.4   691 – Steward Observatory, Kitt Peak-Spacewatch MPS 542516
2014 11 12.40608 02 00 38.882 +17 43 30.06 20.7 r F51 – Pan-STARRS 1, Haleakala MPS 544892
2014 11 12.41915 02 00 38.311 +17 43 23.85 20.6 r F51 – Pan-STARRS 1, Haleakala MPS 544892
2014 11 12.44439 02 00 37.233 +17 43 11.63 20.5 r F51 – Pan-STARRS 1, Haleakala MPS 544892
2014 11 19.08788 01 56 24.41 +16 50 29.7   691 – Steward Observatory, Kitt Peak-Spacewatch MPS 545835
2014 11 19.14616 01 56 22.27 +16 50 03.0   691 – Steward Observatory, Kitt Peak-Spacewatch MPS 545835
2014 11 19.18381 01 56 20.97 +16 49 45.8   691 – Steward Observatory, Kitt Peak-Spacewatch MPS 545835
2015 01 10.26441 01 57 34.124 +13 14 26.94 21.9 w F51 – Pan-STARRS 1, Haleakala MPS 561273
2015 01 10.29070 01 57 35.058 +13 14 26.80 21.9 w F51 – Pan-STARRS 1, Haleakala MPS 561273
2015 01 10.30394 01 57 35.513 +13 14 26.85 21.8 w F51 – Pan-STARRS 1, Haleakala MPS 561273
2015 01 22.22507 02 06 09.545 +13 21 41.98 22.0 w F51 – Pan-STARRS 1, Haleakala MPS 562846
2015 01 22.24044 02 06 10.265 +13 21 43.41 22.2 w F51 – Pan-STARRS 1, Haleakala MPS 562846
2015 01 22.25577 02 06 11.032 +13 21 44.18 22.2 w F51 – Pan-STARRS 1, Haleakala MPS 562846
2015 01 22.27114 02 06 11.768 +13 21 45.56 22.0 w F51 – Pan-STARRS 1, Haleakala MPS 562846
2016 01 07.43751 09 05 58.932 +00 58 40.53 21.2 w F51 – Pan-STARRS 1, Haleakala MPS 665621
2016 01 07.44849 09 05 58.512 +00 58 39.23 21.1 w F51 – Pan-STARRS 1, Haleakala MPS 665621
2016 01 07.45943 09 05 58.108 +00 58 38.08 21.6 w F51 – Pan-STARRS 1, Haleakala MPS 665621
2016 01 07.47041 09 05 57.681 +00 58 36.84 21.4 w F51 – Pan-STARRS 1, Haleakala MPS 665621
2016 01 10.54388 09 04 00.110 +00 54 15.61 21.2 w F51 – Pan-STARRS 1, Haleakala MPS 668545
2016 01 10.55735 09 03 59.550 +00 54 14.60 21.2 w F51 – Pan-STARRS 1, Haleakala MPS 668545
2016 01 10.57080 09 03 58.991 +00 54 13.78 21.2 w F51 – Pan-STARRS 1, Haleakala MPS 668545
2016 01 10.58428 09 03 58.428 +00 54 12.62 21.2 w F51 – Pan-STARRS 1, Haleakala MPS 668545
2016 01 12.38475 09 02 45.254 +00 52 26.77 21.1 w F51 – Pan-STARRS 1, Haleakala MPS 668545
2016 01 12.39729 09 02 44.714 +00 52 26.24 21.2 w F51 – Pan-STARRS 1, Haleakala MPS 668545
2016 01 12.40984 09 02 44.172 +00 52 25.66 21.0 w F51 – Pan-STARRS 1, Haleakala MPS 668545
2016 01 12.42247 09 02 43.623 +00 52 24.88 21.1 w F51 – Pan-STARRS 1, Haleakala MPS 668545
2016 01 19.39455 08 57 31.875 +00 51 01.97 20.7 i F51 – Pan-STARRS 1, Haleakala MPS 671916
2016 01 19.41944 08 57 30.648 +00 51 02.52 20.8 i F51 – Pan-STARRS 1, Haleakala MPS 671916
2016 01 19.43193 08 57 30.031 +00 51 03.03 21.0 i F51 – Pan-STARRS 1, Haleakala MPS 671916
2016 02 09.39129 08 39 59.872 +01 35 00.85 20.9 w F51 – Pan-STARRS 1, Haleakala MPS 679253
2016 02 09.40255 08 39 59.302 +01 35 03.15 20.8 w F51 – Pan-STARRS 1, Haleakala MPS 679253
2016 02 09.41382 08 39 58.735 +01 35 05.64 20.9 w F51 – Pan-STARRS 1, Haleakala MPS 679253
2016 02 10.33655 08 39 14.108 +01 38 25.42 20.8 w F51 – Pan-STARRS 1, Haleakala MPS 679253
2016 02 10.34847 08 39 13.517 +01 38 28.06 20.9 w F51 – Pan-STARRS 1, Haleakala MPS 679253
2016 02 10.36041 08 39 12.917 +01 38 30.67 21.0 w F51 – Pan-STARRS 1, Haleakala MPS 679253
2016 03 05.30688 08 24 27.477 +03 25 01.02 21.6 w F51 – Pan-STARRS 1, Haleakala MPS 690277
2016 03 05.31889 08 24 27.194 +03 25 04.42 21.5 w F51 – Pan-STARRS 1, Haleakala MPS 690277
2016 03 05.34311 08 24 26.611 +03 25 11.48 21.3 w F51 – Pan-STARRS 1, Haleakala MPS 690277
2016 04 04.24907 08 24 03.242 +05 27 39.43 21.8 w F51 – Pan-STARRS 1, Haleakala MPS 698843
2016 04 04.26049 08 24 03.475 +05 27 41.55 21.9 w F51 – Pan-STARRS 1, Haleakala MPS 698843
2016 04 04.27188 08 24 03.663 +05 27 43.30 21.6 w F51 – Pan-STARRS 1, Haleakala MPS 698843
2017 04 01.51035 14 46 44.340 -22 10 56.92 21.7 w F51 – Pan-STARRS 1, Haleakala MPS 785579
2017 04 01.52157 14 46 43.996 -22 10 54.46 21.4 w F51 – Pan-STARRS 1, Haleakala MPS 785579
2017 04 01.53277 14 46 43.644 -22 10 52.06 21.5 w F51 – Pan-STARRS 1, Haleakala MPS 785579
2017 05 01.30369 14 26 00.54 -19 26 04.0 20.7 V G96 – Mt. Lemmon Survey MPS 794856
2017 05 01.30794 14 26 00.32 -19 26 02.2 20.5 V G96 – Mt. Lemmon Survey MPS 794856
2017 05 01.31218 14 26 00.12 -19 26 00.6 21.1 V G96 – Mt. Lemmon Survey MPS 794856
2017 05 01.31643 14 25 59.92 -19 25 58.7 20.8 V G96 – Mt. Lemmon Survey MPS 794856
2017 05 18.32059 14 13 34.823 -17 25 34.09 21.1 w F51 – Pan-STARRS 1, Haleakala MPS 797952
2017 05 18.33232 14 13 34.375 -17 25 29.01 21.3 w F51 – Pan-STARRS 1, Haleakala MPS 797952
2017 05 18.34406 14 13 33.912 -17 25 24.18 21.2 w F51 – Pan-STARRS 1, Haleakala MPS 797952
2017 05 18.35578 14 13 33.438 -17 25 19.43 21.2 w F51 – Pan-STARRS 1, Haleakala MPS 797952
2018 06 16.51365 20 33 24.095 -05 25 09.79 21.6 w F51 – Pan-STARRS 1, Haleakala MPS 900319
2018 06 16.52636 20 33 23.828 -05 25 06.72 21.6 w F51 – Pan-STARRS 1, Haleakala MPS 900319
2018 06 16.53902 20 33 23.554 -05 25 04.05 21.7 w F51 – Pan-STARRS 1, Haleakala MPS 900319
